INSAT-3DR (41752 NORAD) Tracking and Keplerian Element Data

This shows tracking and keplerian element data for the satellite.

Feedback or suggestion? Click here.




ElementValue
Catalog41752
NameINSAT-3DR
Epoch Orbit900
Epoch Day52.35118743
Epoch Year2019
RAAN101.0174
Inclination0.0161
Eccentricity0.0013108
Argument of Perigee180.06
Mean Anonmoly70.2529
Mean Motion1.0027086
Decay Rate-9.9E-07
L11 41752U 16054A 19052.35118743 -.00000099 00000-0 00000+0 0 9992
L22 41752 0.0161 101.0174 0013108 180.0600 70.2529 1.00270860 9009

Live tracking and technical data element details for INSAT-3DR (NORAD 41752). INSAT-3DR can be tracked NOW for your location showing map with azimuth and elevation plus other details from your city location.

Track the satellite on the map from your city or location and see movement details for azimuth, elevation, latitude, longitude, range, height, and movement on the map or in text.







IsCatalogInMostPopularTable: catalog: 41752, numindb: 150
Update: records affected: 1



GetName: 41752 INSAT-3DR

Hit Count: updated at: Fri, 22 Feb 2019 23:39:30 GMT